SCP
0 0 0 0 0 0 0 0 0 0 -0 -0 0 0 0 0 0 0 0 0 0 0 0 0 0 0 0 0 0 0 0 0 0 0 0 0 0 0 0 0 0 0 0 0
0 0 0 0 -0 -0 0 0 0 0 0 0 0 0 0 0 0 0 0 0 0 0 0 0 0 0 0 0 0 0 0 0 0 0 0 0 0 0 0 0 0 0 0 0
0 0 0 0 0 0 0 0 0 -0 0 0 0 0 0 0 0 0 0 0 0 0 0 0 -0 0 0 0 0 0 0 0 0 0 0 0 0 0 0 0 0 0 0 0
0 0 0 0 -0 0 0 0 0 0 0 -0 -0 0 0 0 0 0 0 0 0 0 0 0 0 0 0 0 0 0 0 0 0 0 0 0 0 0 0 0 0 0 0 0
0 0 0 0 0 0 0 0 0 0 0 0 0 0 0 0 0 0 0 0 0 0 0 0 0 0 0 0 0 0 0 0 0 0 0 0 0 0 0 0 0 0 0 0
0 0 0 0 0 0 0 0 0 0 -0 -0 -0 -0 -0 0 0 0 0 0 0 0 0 0 0 0 0 0 0 0 0 0 0 0 0 0 0 0 0 0 0 0 0 0
0 0 0 0 0 -0 0 0 0 -0 0 0 -0 0 0 0 0 0 0 0 0 0 0 0 0 0 0 0 0 0 0 0 0 0 0 0 0 0 0 0 0 0 0 0
0 0 0 0 0 -0 0 0 0 -0 0 0 0 0 0 0 0 0 0 0 0 0 0 0 0 0 0 0 0 0 0 0 0 0 0 0 0 0 0 0 0 0 0 0
0 0 0 0 0 0 0 0 0 0 0 0 0 0 0 -0 -0 -0 -0 -0 -0 0 0 0 0 0 0 0 0 0 0 0 0 0 0 0 0 0 0 0 0 0 0 0
0 0 0 0 0 0 0 0 0 0 0 0 0 -0 -0 -0 -0 0 -0 -0 0 0 0 0 0 0 0 0 0 0 0 0 0 0 0 0 0 0 -0 -0 -0 0 0 0
0 0 -0 0 0 0 0 0 0 0 0 0 -0 -0 -0 -0 -0 -0 -0 0 0 0 -0 -0 -0 -0 -0 -0 0 -0 0 0 0 0 0 0 0 0 0 0 0 0 0 0
0 0 0 0 0 0 0 -0 0 -0 -0 0 -0 -0 -0 -0 -0 -0 0 0 -0 -0 -0 -0 0 -0 0 0 -0 -0 0 -0 -0 -0 -0 -0 -0 0 0 0 0 0 0 0
0 0 0 0 0 0 0 0 -0 -0 0 -0 -0 -0 0 0 0 -0 0 -0 -0 -0 -0 0 -0 -0 0 0 -0 -0 -0 0 0 -0 -0 0 -0 -0 0 -0 -0 0 0 0
0 0 0 0 0 0 0 0 0 0 0 0 0 -0 -0 -0 -0 -0 -0 -0 0 -0 0 0 -0 -0 -0 -0 -0 -0 -0 0 -0 0 0 0 0 0 0 0 -0 0 0 0
0 0 0 0 0 0 0 0 -0 0 0 0 0 0 -0 -0 -0 0 -0 0 0 0 -0 -0 -0 -0 -0 -0 -0 -0 -0 -0 -0 -0 0 0 0 0 0 0 0 0 0 0
0 0 0 0 0 0 0 0 0 0 0 0 0 0 0 0 0 0 0 0 0 -0 0 0 0 0 0 0 0 0 0 0 0 0 0 0 0 -0 0 0 0 0 0 0
-0 0 0 0 0 0 0 0 0 0 0 0 0 0 0 0 0 0 0 0 0 0 0 0 0 -0 -0 -0 0 -0 0 0 0 0 0 -0 0 0 0 0 0 0 0 0
0 0 0 0 0 0 0 0 0 0 0 0 0 0 0 0 0 0 0 0 0 0 0 0 0 -0 -0 0 -0 0 0 0 0 0 0 0 0 0 0 0 0 0 0 0
0 0 0 0 0 0 0 0 0 -0 0 0 0 0 0 0 0 0 0 0 0 0 0 0 0 0 0 0 0 0 0 0 0 0 0 0 0 0 0 0 0 0 0 0
0 0 0 0 0 0 0 0 0 -0 -0 -0 -0 0 0 0 0 0 0 0 0 0 0 0 0 0 0 0 0 0 0 0 0 0 0 0 0 0 0 0 0 0 0 0
0 0 0 0 0 0 0 0 0 0 0 -0 -0 -0 0 0 0 0 0 0 0 -0 0 0 0 0 0 0 0 0 0 0 0 0 0 0 0 0 0 0 0 0 0 0
-0 0 0 0 0 0 0 0 0 -0 -0 0 0 0 0 0 0 0 0 0 0 0 0 0 0 0 0 0 0 0 0 0 0 0 0 0 0 0 0 0 0 0 0 0
-0 0 0 0 0 0 0 0 0 -0 -0 -0 -0 -0 0 0 0 0 0 0 0 0 0 0 0 0 0 0 0 0 0 0 0 0 0 0 0 0 0 0 0 0 0 0
-0 -0 -0 0 0 0 0 0 -0 -0 -0 -0 -0 0 0 0 0 0 0 0 0 -0 0 0 0 0 0 0 0 0 0 0 0 0 0 0 0 0 0 0 0 0 0 0
-0 0 -0 -0 0 0 0 0 0 -0 -0 -0 -0 -0 -0 0 0 0 0 0 -0 -0 -0 -0 -0 -0 0 0 0 0 0 0 0 0 0 0 0 0 0 0 0 0 0 0
-0 -0 -0 0 -0 -0 -0 0 -0 -0 -0 -0 -0 -0 -0 0 0 0 0 -0 -0 -0 -0 -0 -0 0 0 0 0 0 0 0 0 0 0 0 0 0 0 0 0 0 0 0
0 -0 -0 -0 0 -0 -0 -0 -0 -0 0 -0 -0 0 0 0 0 0 -0 -0 -0 -0 -0 -0 -0 -0 0 0 0 0 0 0 0 0 0 0 0 0 0 0 0 0 0 0
Wind_Speed_500mb
20 29 29 30 33 33 21 30 15 30 29 30 26 19 29 53 59 48 51 55 49 28 27 38 31 48 45 50 48 46 49 49 52 48 45 41 43 53 67 66 62 62 66 66
15 21 30 36 32 33 30 34 21 17 22 21 46 28 38 36 41 29 35 25 16 35 28 35 19 15 14 24 26 30 31 35 42 51 57 60 62 64 66 70 71 69 67 72
12 19 31 18 13 20 10 8 4 8 9 21 24 15 24 25 24 23 33 25 18 15 16 29 34 37 35 32 36 37 41 46 46 52 63 73 78 78 80 79 81 80 75 74
9 12 7 11 25 13 17 16 18 11 21 4 14 32 34 13 23 27 28 27 31 27 40 48 48 51 42 41 48 56 62 66 67 63 64 69 76 84 87 73 77 84 84 78
2 5 20 15 14 21 8 5 23 27 28 26 33 45 30 15 30 30 34 40 40 50 56 63 64 64 62 54 58 62 70 70 65 72 86 83 88 98 104 103 103 93 88 79
4 6 7 14 25 39 14 9 35 29 27 28 30 19 11 45 66 56 48 47 54 60 61 69 71 71 68 70 75 82 75 74 85 83 82 80 76 79 79 73 81 80 86 79
10 10 11 24 25 32 6 12 45 50 45 48 20 23 59 67 61 59 58 51 48 59 68 71 71 65 72 71 67 62 59 71 76 79 84 88 86 92 97 86 89 69 77 78
7 7 5 29 12 13 14 30 42 45 54 57 59 66 71 73 71 72 72 73 77 83 86 77 73 73 79 75 73 77 77 80 84 83 78 70 71 68 64 64 80 68 72 79
5 8 10 28 21 18 35 44 48 60 63 63 63 67 72 81 81 90 84 78 76 69 66 67 70 71 75 71 68 70 66 71 74 66 65 64 64 64 64 63 69 67 71 81
11 7 18 50 27 57 50 61 67 68 68 57 65 79 93 83 87 68 78 76 75 70 65 65 59 53 57 60 61 63 63 72 62 59 61 58 60 61 62 69 71 76 75 75
12 17 50 14 52 56 70 73 75 79 59 83 88 82 83 74 79 76 76 70 66 58 62 69 68 73 75 71 65 61 63 64 62 65 64 62 56 57 64 76 75 71 71 69
10 37 27 46 67 79 78 77 84 73 75 87 77 80 77 81 76 73 72 69 67 69 70 68 64 68 74 63 56 55 59 69 66 61 61 58 58 58 59 66 66 68 71 61
18 44 55 63 67 62 72 82 78 90 85 87 81 73 73 78 76 72 71 74 72 69 70 68 72 71 67 62 61 61 63 62 61 57 57 57 50 56 62 65 62 65 60 56
27 33 39 48 60 71 58 77 84 83 76 78 83 77 76 74 72 69 72 71 70 71 72 70 69 71 63 52 51 54 57 56 55 57 59 59 54 57 54 53 44 54 52 75
45 49 53 65 70 71 73 79 96 86 80 84 77 78 75 76 73 73 70 67 66 63 63 66 69 66 56 53 51 47 50 55 59 60 60 61 49 47 39 57 62 72 41 68
55 56 52 59 72 71 65 82 93 90 85 90 85 85 77 70 66 63 57 52 51 59 63 65 67 58 49 46 39 37 40 45 50 64 54 48 35 42 66 78 86 87 89 90
47 50 65 67 72 74 75 80 94 95 93 81 89 82 71 62 57 55 50 41 41 48 49 55 62 53 54 49 38 35 37 42 20 32 33 28 61 68 87 95 94 97 91 81
43 46 54 64 72 76 84 83 88 103 95 92 93 77 71 63 63 53 40 29 16 6 6 15 28 44 46 38 33 22 29 35 24 61 72 78 80 82 83 89 92 89 80 73
48 45 56 63 72 73 77 88 88 99 103 98 90 81 67 63 57 51 33 39 44 29 30 39 42 42 36 20 12 29 38 46 96 81 83 79 81 82 83 82 82 78 72 70
58 46 54 63 69 67 74 87 89 102 107 100 93 85 84 75 72 67 55 60 56 47 32 36 30 26 22 26 32 49 63 77 77 75 75 71 73 72 72 78 75 71 68 66
58 54 56 56 63 69 70 88 86 104 107 101 99 90 84 82 75 82 87 72 58 50 33 28 32 35 35 45 50 60 70 68 69 71 68 74 73 73 73 76 69 68 68 69
56 65 68 56 55 65 69 77 84 98 96 101 100 96 93 92 84 76 74 69 66 51 44 38 38 40 41 49 50 61 59 66 65 67 68 66 72 71 74 71 67 66 62 62
52 56 66 58 60 61 67 76 82 101 90 94 96 99 94 87 87 82 72 64 60 56 49 46 39 37 58 85 72 67 64 62 59 56 54 56 67 72 71 70 67 63 62 61
41 48 59 61 61 63 73 79 70 93 96 95 106 102 100 96 80 68 59 52 52 47 55 57 47 47 59 60 62 60 56 57 56 51 48 55 66 68 69 62 59 57 58 60
38 41 49 65 73 66 66 71 61 93 96 96 103 108 98 91 81 72 66 54 49 49 46 41 36 36 44 49 53 52 53 51 51 42 50 56 62 64 59 55 54 59 60 55
43 50 50 49 64 62 55 65 56 74 91 94 93 100 103 93 86 75 69 58 50 46 45 46 45 43 42 45 47 50 53 54 48 46 45 49 59 61 57 54 56 57 55 55
46 50 54 57 65 67 49 57 56 59 86 85 86 86 93 98 89 81 73 64 54 46 41 39 39 40 41 43 47 48 48 49 47 45 47 55 57 55 55 56 59 58 59 60
Wind_Direction_500mb
288 298 297 294 289 286 240 228 225 262 242 244 229 225 232 228 234 234 242 256 285 297 330 284 265 242 230 232 238 246 245 238 242 249 252 261 269 272 274 279 280 280 278 277
293 313 300 290 290 283 278 280 289 336 320 15 347 323 16 14 344 272 257 263 326 355 331 353 310 215 170 186 188 197 217 235 245 249 253 258 262 267 272 278 284 281 277 275
283 311 323 308 304 321 268 320 135 290 279 360 337 352 326 9 54 18 345 349 333 338 342 245 287 289 277 281 276 261 254 255 261 264 265 265 268 270 274 278 280 281 278 275
290 327 247 253 15 24 8 334 38 309 12 268 279 293 319 91 37 8 341 319 315 309 298 290 289 288 295 288 280 279 277 270 264 260 260 263 264 267 271 272 276 277 276 273
226 266 286 295 16 9 10 10 30 357 342 339 344 331 335 18 4 337 315 306 305 297 292 296 290 289 291 280 272 273 271 270 271 275 277 273 270 265 262 263 270 270 272 270
292 269 258 33 1 339 287 248 360 343 328 332 340 312 289 315 314 305 298 293 291 289 286 282 282 285 283 275 272 271 269 271 279 278 274 268 263 260 261 259 261 263 266 265
215 242 277 8 353 333 19 317 346 344 341 330 315 299 305 307 302 301 304 293 279 278 281 284 280 278 271 268 260 262 267 270 268 273 272 272 268 262 263 263 254 262 263 263
233 236 286 8 16 359 271 311 324 326 319 309 306 306 305 301 297 300 295 290 290 288 284 279 272 268 269 271 273 274 274 269 271 275 273 270 262 264 264 261 249 260 258 259
233 260 77 5 312 332 334 328 321 312 308 301 300 304 305 303 298 295 290 291 293 287 281 278 275 272 269 271 273 271 264 268 275 274 272 265 262 261 255 256 254 256 259 262
350 342 359 334 330 331 328 319 312 309 308 304 310 307 302 293 297 285 291 290 289 282 279 281 282 270 264 266 268 271 269 275 274 272 271 265 259 258 253 250 253 257 261 261
267 278 336 294 319 316 318 316 310 309 308 304 303 300 295 298 294 290 291 288 285 276 280 279 275 276 275 275 273 269 269 270 268 268 267 267 262 258 250 246 248 255 254 260
278 307 294 293 305 319 308 312 310 324 317 316 302 303 294 296 295 292 289 287 282 278 279 277 272 271 274 272 265 263 261 263 264 259 258 260 261 259 256 255 255 250 262 252
290 299 298 298 306 314 312 316 322 322 315 316 313 303 302 297 296 292 287 283 280 278 278 276 277 273 268 267 266 258 258 258 258 262 260 259 253 253 253 258 253 241 236 234
317 318 311 317 304 314 317 321 320 313 318 311 319 305 307 300 296 292 289 286 284 280 278 277 272 268 269 269 262 258 255 250 258 265 261 262 254 253 251 250 228 200 210 178
328 328 308 311 315 320 324 329 330 324 316 322 318 319 311 309 304 299 296 291 289 282 275 271 270 267 269 269 263 261 240 243 253 257 256 249 242 224 218 193 183 153 156 195
326 322 321 323 321 326 327 331 332 329 327 323 324 326 321 318 315 310 305 299 289 276 272 269 263 258 263 263 256 248 250 259 270 263 220 188 191 186 182 142 140 143 144 146
331 329 326 324 330 336 333 334 336 333 330 328 331 335 334 336 330 329 324 315 298 281 271 260 255 245 245 245 243 240 253 272 222 177 174 177 170 145 131 140 143 140 137 142
333 328 327 332 331 338 336 335 335 341 338 339 344 346 346 350 344 347 346 347 348 313 337 262 230 210 214 215 210 224 241 228 190 139 156 132 128 137 139 134 134 133 134 140
343 338 339 338 341 338 343 340 337 344 348 350 350 352 1 5 5 9 18 24 53 73 76 96 119 136 150 171 181 143 144 133 118 128 128 129 134 136 138 135 130 132 138 140
352 351 345 342 344 346 346 345 342 351 355 357 358 6 10 17 25 29 46 50 53 57 89 106 102 107 120 133 155 135 129 124 121 116 125 130 131 132 137 141 140 140 141 143
0 357 349 348 347 350 352 352 349 355 359 3 7 10 15 20 30 36 49 53 56 78 102 108 123 128 129 130 133 131 123 122 122 130 137 136 135 138 143 146 144 142 142 142
1 6 0 358 359 356 0 355 355 1 2 10 9 17 22 26 31 41 43 42 56 87 100 108 122 109 116 126 137 147 135 137 136 136 135 138 141 144 146 144 142 145 144 145
353 353 1 7 5 359 7 360 357 3 5 12 14 22 26 30 29 32 33 39 59 87 102 115 120 109 115 136 130 140 141 143 141 140 142 143 146 147 145 144 144 146 146 147
356 352 7 10 10 11 12 2 1 6 11 16 23 28 29 28 33 35 34 38 58 76 98 119 128 128 130 137 142 144 147 148 150 149 149 146 150 151 150 149 149 149 149 152
5 351 13 13 10 8 14 10 2 9 13 20 24 27 30 34 31 29 33 38 57 71 87 106 120 128 130 139 144 146 150 153 154 154 150 150 155 155 153 153 151 150 149 151
12 12 13 6 6 13 17 20 10 10 15 18 24 26 27 30 31 32 38 40 49 66 80 94 108 122 130 136 143 145 149 151 151 149 148 153 159 159 156 156 154 148 148 150
15 18 15 11 11 17 20 26 24 14 17 18 26 26 27 29 32 31 34 36 40 53 69 85 102 117 130 138 144 146 150 155 158 154 146 147 150 154 154 152 150 150 151 150
Wind_Speed_850mb
20 29 29 30 33 33 21 30 15 30 29 30 26 19 29 53 59 48 51 55 49 28 27 38 31 48 45 50 48 46 49 49 52 48 45 41 43 53 67 66 62 62 66 66
15 21 30 36 32 33 30 34 21 17 22 21 46 28 38 36 41 29 35 25 16 35 28 35 19 15 14 24 26 30 31 35 42 51 57 60 62 64 66 70 71 69 67 72
12 19 31 18 13 20 10 8 4 8 9 21 24 15 24 25 24 23 33 25 18 15 16 29 34 37 35 32 36 37 41 46 46 52 63 73 78 78 80 79 81 80 75 74
9 12 7 11 25 13 17 16 18 11 21 4 14 32 34 13 23 27 28 27 31 27 40 48 48 51 42 41 48 56 62 66 67 63 64 69 76 84 87 73 77 84 84 78
2 5 20 15 14 21 8 5 23 27 28 26 33 45 30 15 30 30 34 40 40 50 56 63 64 64 62 54 58 62 70 70 65 72 86 83 88 98 104 103 103 93 88 79
4 6 7 14 25 39 14 9 35 29 27 28 30 19 11 45 66 56 48 47 54 60 61 69 71 71 68 70 75 82 75 74 85 83 82 80 76 79 79 73 81 80 86 79
10 10 11 24 25 32 6 12 45 50 45 48 20 23 59 67 61 59 58 51 48 59 68 71 71 65 72 71 67 62 59 71 76 79 84 88 86 92 97 86 89 69 77 78
7 7 5 29 12 13 14 30 42 45 54 57 59 66 71 73 71 72 72 73 77 83 86 77 73 73 79 75 73 77 77 80 84 83 78 70 71 68 64 64 80 68 72 79
5 8 10 28 21 18 35 44 48 60 63 63 63 67 72 81 81 90 84 78 76 69 66 67 70 71 75 71 68 70 66 71 74 66 65 64 64 64 64 63 69 67 71 81
11 7 18 50 27 57 50 61 67 68 68 57 65 79 93 83 87 68 78 76 75 70 65 65 59 53 57 60 61 63 63 72 62 59 61 58 60 61 62 69 71 76 75 75
12 17 50 14 52 56 70 73 75 79 59 83 88 82 83 74 79 76 76 70 66 58 62 69 68 73 75 71 65 61 63 64 62 65 64 62 56 57 64 76 75 71 71 69
10 37 27 46 67 79 78 77 84 73 75 87 77 80 77 81 76 73 72 69 67 69 70 68 64 68 74 63 56 55 59 69 66 61 61 58 58 58 59 66 66 68 71 61
18 44 55 63 67 62 72 82 78 90 85 87 81 73 73 78 76 72 71 74 72 69 70 68 72 71 67 62 61 61 63 62 61 57 57 57 50 56 62 65 62 65 60 56
27 33 39 48 60 71 58 77 84 83 76 78 83 77 76 74 72 69 72 71 70 71 72 70 69 71 63 52 51 54 57 56 55 57 59 59 54 57 54 53 44 54 52 75
45 49 53 65 70 71 73 79 96 86 80 84 77 78 75 76 73 73 70 67 66 63 63 66 69 66 56 53 51 47 50 55 59 60 60 61 49 47 39 57 62 72 41 68
55 56 52 59 72 71 65 82 93 90 85 90 85 85 77 70 66 63 57 52 51 59 63 65 67 58 49 46 39 37 40 45 50 64 54 48 35 42 66 78 86 87 89 90
47 50 65 67 72 74 75 80 94 95 93 81 89 82 71 62 57 55 50 41 41 48 49 55 62 53 54 49 38 35 37 42 20 32 33 28 61 68 87 95 94 97 91 81
43 46 54 64 72 76 84 83 88 103 95 92 93 77 71 63 63 53 40 29 16 6 6 15 28 44 46 38 33 22 29 35 24 61 72 78 80 82 83 89 92 89 80 73
48 45 56 63 72 73 77 88 88 99 103 98 90 81 67 63 57 51 33 39 44 29 30 39 42 42 36 20 12 29 38 46 96 81 83 79 81 82 83 82 82 78 72 70
58 46 54 63 69 67 74 87 89 102 107 100 93 85 84 75 72 67 55 60 56 47 32 36 30 26 22 26 32 49 63 77 77 75 75 71 73 72 72 78 75 71 68 66
58 54 56 56 63 69 70 88 86 104 107 101 99 90 84 82 75 82 87 72 58 50 33 28 32 35 35 45 50 60 70 68 69 71 68 74 73 73 73 76 69 68 68 69
56 65 68 56 55 65 69 77 84 98 96 101 100 96 93 92 84 76 74 69 66 51 44 38 38 40 41 49 50 61 59 66 65 67 68 66 72 71 74 71 67 66 62 62
52 56 66 58 60 61 67 76 82 101 90 94 96 99 94 87 87 82 72 64 60 56 49 46 39 37 58 85 72 67 64 62 59 56 54 56 67 72 71 70 67 63 62 61
41 48 59 61 61 63 73 79 70 93 96 95 106 102 100 96 80 68 59 52 52 47 55 57 47 47 59 60 62 60 56 57 56 51 48 55 66 68 69 62 59 57 58 60
38 41 49 65 73 66 66 71 61 93 96 96 103 108 98 91 81 72 66 54 49 49 46 41 36 36 44 49 53 52 53 51 51 42 50 56 62 64 59 55 54 59 60 55
43 50 50 49 64 62 55 65 56 74 91 94 93 100 103 93 86 75 69 58 50 46 45 46 45 43 42 45 47 50 53 54 48 46 45 49 59 61 57 54 56 57 55 55
46 50 54 57 65 67 49 57 56 59 86 85 86 86 93 98 89 81 73 64 54 46 41 39 39 40 41 43 47 48 48 49 47 45 47 55 57 55 55 56 59 58 59 60
Wind_Direction_850mb
288 298 297 294 289 286 240 228 225 262 242 244 229 225 232 228 234 234 242 256 285 297 330 284 265 242 230 232 238 246 245 238 242 249 252 261 269 272 274 279 280 280 278 277
293 313 300 290 290 283 278 280 289 336 320 15 347 323 16 14 344 272 257 263 326 355 331 353 310 215 170 186 188 197 217 235 245 249 253 258 262 267 272 278 284 281 277 275
283 311 323 308 304 321 268 320 135 290 279 360 337 352 326 9 54 18 345 349 333 338 342 245 287 289 277 281 276 261 254 255 261 264 265 265 268 270 274 278 280 281 278 275
290 327 247 253 15 24 8 334 38 309 12 268 279 293 319 91 37 8 341 319 315 309 298 290 289 288 295 288 280 279 277 270 264 260 260 263 264 267 271 272 276 277 276 273
226 266 286 295 16 9 10 10 30 357 342 339 344 331 335 18 4 337 315 306 305 297 292 296 290 289 291 280 272 273 271 270 271 275 277 273 270 265 262 263 270 270 272 270
292 269 258 33 1 339 287 248 360 343 328 332 340 312 289 315 314 305 298 293 291 289 286 282 282 285 283 275 272 271 269 271 279 278 274 268 263 260 261 259 261 263 266 265
215 242 277 8 353 333 19 317 346 344 341 330 315 299 305 307 302 301 304 293 279 278 281 284 280 278 271 268 260 262 267 270 268 273 272 272 268 262 263 263 254 262 263 263
233 236 286 8 16 359 271 311 324 326 319 309 306 306 305 301 297 300 295 290 290 288 284 279 272 268 269 271 273 274 274 269 271 275 273 270 262 264 264 261 249 260 258 259
233 260 77 5 312 332 334 328 321 312 308 301 300 304 305 303 298 295 290 291 293 287 281 278 275 272 269 271 273 271 264 268 275 274 272 265 262 261 255 256 254 256 259 262
350 342 359 334 330 331 328 319 312 309 308 304 310 307 302 293 297 285 291 290 289 282 279 281 282 270 264 266 268 271 269 275 274 272 271 265 259 258 253 250 253 257 261 261
267 278 336 294 319 316 318 316 310 309 308 304 303 300 295 298 294 290 291 288 285 276 280 279 275 276 275 275 273 269 269 270 268 268 267 267 262 258 250 246 248 255 254 260
278 307 294 293 305 319 308 312 310 324 317 316 302 303 294 296 295 292 289 287 282 278 279 277 272 271 274 272 265 263 261 263 264 259 258 260 261 259 256 255 255 250 262 252
290 299 298 298 306 314 312 316 322 322 315 316 313 303 302 297 296 292 287 283 280 278 278 276 277 273 268 267 266 258 258 258 258 262 260 259 253 253 253 258 253 241 236 234
317 318 311 317 304 314 317 321 320 313 318 311 319 305 307 300 296 292 289 286 284 280 278 277 272 268 269 269 262 258 255 250 258 265 261 262 254 253 251 250 228 200 210 178
328 328 308 311 315 320 324 329 330 324 316 322 318 319 311 309 304 299 296 291 289 282 275 271 270 267 269 269 263 261 240 243 253 257 256 249 242 224 218 193 183 153 156 195
326 322 321 323 321 326 327 331 332 329 327 323 324 326 321 318 315 310 305 299 289 276 272 269 263 258 263 263 256 248 250 259 270 263 220 188 191 186 182 142 140 143 144 146
331 329 326 324 330 336 333 334 336 333 330 328 331 335 334 336 330 329 324 315 298 281 271 260 255 245 245 245 243 240 253 272 222 177 174 177 170 145 131 140 143 140 137 142
333 328 327 332 331 338 336 335 335 341 338 339 344 346 346 350 344 347 346 347 348 313 337 262 230 210 214 215 210 224 241 228 190 139 156 132 128 137 139 134 134 133 134 140
343 338 339 338 341 338 343 340 337 344 348 350 350 352 1 5 5 9 18 24 53 73 76 96 119 136 150 171 181 143 144 133 118 128 128 129 134 136 138 135 130 132 138 140
352 351 345 342 344 346 346 345 342 351 355 357 358 6 10 17 25 29 46 50 53 57 89 106 102 107 120 133 155 135 129 124 121 116 125 130 131 132 137 141 140 140 141 143
0 357 349 348 347 350 352 352 349 355 359 3 7 10 15 20 30 36 49 53 56 78 102 108 123 128 129 130 133 131 123 122 122 130 137 136 135 138 143 146 144 142 142 142
1 6 0 358 359 356 0 355 355 1 2 10 9 17 22 26 31 41 43 42 56 87 100 108 122 109 116 126 137 147 135 137 136 136 135 138 141 144 146 144 142 145 144 145
353 353 1 7 5 359 7 360 357 3 5 12 14 22 26 30 29 32 33 39 59 87 102 115 120 109 115 136 130 140 141 143 141 140 142 143 146 147 145 144 144 146 146 147
356 352 7 10 10 11 12 2 1 6 11 16 23 28 29 28 33 35 34 38 58 76 98 119 128 128 130 137 142 144 147 148 150 149 149 146 150 151 150 149 149 149 149 152
5 351 13 13 10 8 14 10 2 9 13 20 24 27 30 34 31 29 33 38 57 71 87 106 120 128 130 139 144 146 150 153 154 154 150 150 155 155 153 153 151 150 149 151
12 12 13 6 6 13 17 20 10 10 15 18 24 26 27 30 31 32 38 40 49 66 80 94 108 122 130 136 143 145 149 151 151 149 148 153 159 159 156 156 154 148 148 150
15 18 15 11 11 17 20 26 24 14 17 18 26 26 27 29 32 31 34 36 40 53 69 85 102 117 130 138 144 146 150 155 158 154 146 147 150 154 154 152 150 150 151 150